Lid_Strength_Index
7 7 7 7 8 7 8 8 9 8 8 7 6 5 4 4 3 3 3 4 4 4 3 3 3 2 2 1 1 1 1 1 1 1 0 0 0 0 0 0 -0 -0 0 0
8 7 7 8 7 7 7 7 7 7 7 6 5 4 4 4 3 4 3 3 3 3 3 3 3 2 2 2 1 1 2 1 1 1 1 1 1 1 0 0 -0 -0 0 0
10 7 8 9 7 7 7 6 6 9 6 5 6 5 4 3 3 4 3 3 3 3 3 3 3 2 2 2 1 1 1 1 1 1 1 1 1 1 1 -0 0 0 1 0
10 9 13 7 5 6 6 6 5 6 5 5 5 4 3 2 3 3 3 3 3 2 3 2 2 2 2 1 1 2 2 1 1 1 1 1 1 1 1 1 1 1 1 1
11 11 9 7 6 7 8 8 5 5 5 4 4 4 4 3 2 2 2 2 2 2 2 2 2 2 2 2 2 2 2 2 1 1 1 1 1 1 1 1 1 1 1 1
9 12 13 8 6 5 5 10 6 5 5 5 4 7 6 3 3 3 2 1 1 1 2 2 2 2 2 2 2 2 2 2 1 1 1 1 1 1 1 0 1 1 1 1
10 11 8 5 5 5 12 12 6 5 5 4 5 5 3 2 2 2 1 2 1 1 2 2 2 2 2 2 2 2 1 1 1 1 1 1 1 1 1 1 1 1 1 1
10 11 12 5 6 9 7 4 4 4 5 4 3 3 3 3 2 2 2 2 2 2 3 2 1 2 2 3 1 1 1 1 1 1 1 1 0 0 1 1 2 2 1 2
11 12 8 5 5 4 4 4 4 4 3 3 4 3 3 3 3 3 2 2 2 2 2 2 1 1 2 1 -0 -1 -0 1 0 -0 0 -0 0 1 2 1 2 1 2 2
9 10 9 5 4 4 3 4 3 3 3 3 3 3 3 3 3 3 2 2 2 2 3 2 2 2 1 1 0 0 1 1 1 1 1 1 1 1 2 1 2 2 3 2
7 8 6 5 4 4 3 3 3 3 3 3 3 3 3 3 2 3 3 3 3 3 3 3 3 3 2 1 2 2 1 1 1 1 1 1 4 5 1 5 5 2 2 2
10 6 6 5 4 3 4 3 3 3 3 2 2 3 3 3 3 3 3 3 3 3 3 3 2 2 2 1 1 1 1 2 1 1 2 2 2 4 9 9 11 11 9 6
6 4 4 4 3 3 4 3 3 2 2 3 2 2 2 3 3 3 3 3 3 3 2 2 2 2 2 1 0 1 1 1 1 2 1 1 2 2 3 6 9 9 8 8
4 4 5 5 5 4 3 3 2 2 2 2 2 2 2 2 3 3 3 2 2 2 2 2 2 2 1 0 0 1 1 4 1 1 1 2 2 2 2 2 3 2 7 7
4 4 4 3 3 3 2 2 3 3 3 2 2 2 3 3 3 3 2 2 1 2 2 2 2 2 1 0 1 1 1 1 1 1 2 2 1 1 2 2 2 2 1 5
4 4 3 4 3 3 3 3 3 3 3 2 2 2 2 2 3 2 2 2 2 3 2 2 2 1 0 0 1 1 1 2 2 1 2 1 2 2 2 2 2 2 3 4
4 5 4 4 4 3 3 3 3 3 3 2 2 2 2 2 4 3 3 2 2 2 2 1 1 1 0 0 1 1 2 1 2 1 2 1 2 2 2 2 2 3 4 5
3 3 3 3 3 3 3 3 2 2 3 2 2 2 2 3 3 4 3 3 3 2 1 1 0 1 0 0 0 1 2 1 1 2 1 2 2 2 1 2 2 3 4 5
2 3 3 2 2 2 3 2 2 2 2 2 2 3 3 3 3 3 3 3 3 3 2 1 1 1 1 1 1 1 1 1 1 2 2 4 3 2 1 2 2 3 3 4
3 2 2 2 2 2 3 2 2 2 2 2 2 3 3 3 2 2 3 4 2 2 1 1 1 1 1 1 1 0 2 2 2 2 2 2 2 2 2 4 3 3 3 3
3 3 3 3 3 2 2 2 2 2 2 2 3 3 3 2 2 2 3 3 2 1 1 1 1 1 1 0 0 1 2 2 2 2 2 2 2 2 2 2 3 4 4 4
3 3 3 3 3 3 2 2 3 3 3 3 2 2 2 3 2 2 1 2 1 3 1 1 1 3 1 2 1 1 2 2 2 2 3 2 3 3 3 3 3 3 4 4
3 3 3 3 3 3 3 2 3 2 3 2 2 2 2 2 2 3 4 1 1 2 1 3 4 3 3 1 1 1 2 2 3 3 3 3 3 3 3 3 3 4 4 5
3 3 4 3 3 3 4 3 2 2 2 2 1 1 2 2 2 1 1 3 3 2 1 2 3 4 6 3 3 2 3 4 4 4 4 5 3 3 3 3 4 4 4 6
3 3 3 3 3 4 3 2 2 2 2 1 1 1 1 1 1 1 1 1 3 2 1 4 4 4 4 3 3 3 3 3 4 4 3 3 3 4 4 4 4 4 4 4
3 3 3 3 3 3 3 2 3 3 3 3 2 2 2 1 2 1 1 1 1 2 1 2 3 4 3 3 2 3 3 3 4 4 5 4 4 4 4 4 4 3 4 4
2 4 2 2 2 1 2 2 3 3 3 2 3 2 1 1 1 1 2 1 1 1 1 1 2 3 2 2 2 2 2 3 4 4 4 4 4 4 4 4 3 3 4 4